EW9392 Weather Reports


Display with metric or nautical units.
time (UTC)temp
F
wind
direction
speed
MPH
gust
MPH
rain 1hr
in
rain 24hr
in
rain mn
in
humidity
%
barometer
mb
20210515120127 73 354 5.0 12.0 0.00 0.00 0.00 65 1020.3
20210515115615 73 336 4.0 11.0 0.00 0.00 0.00 65 1020.3
20210515115037 72 93 4.0 14.0 0.00 0.00 0.00 66 1020.2
20210515114614 72 324 4.0 14.0 0.00 0.00 0.00 66 1020.1
20210515114058 72 342 4.0 11.0 0.00 0.00 0.00 66 1020.1
20210515113533 72 68 4.0 11.0 0.00 0.00 0.00 66 1020.0
20210515113054 72 4 4.0 16.0 0.00 0.00 0.00 67 1020.0
20210515112530 71 32 4.0 12.0 0.00 0.00 0.00 68 1020.0
20210515112056 71 10 3.0 12.0 0.00 0.00 0.00 68 1020.0
20210515111605 71 129 3.0 11.0 0.00 0.00 0.00 69 1019.9
20210515111034 71 39 4.0 11.0 0.00 0.00 0.00 69 1019.9
20210515110525 70 250 5.0 12.0 0.00 0.00 0.00 69 1019.9
20210515110025 70 27 4.0 12.0 0.00 0.00 0.00 69 1019.7
20210515105535 70 359 3.0 10.0 0.00 0.00 0.00 69 1019.8
20210515105022 70 4 3.0 10.0 0.00 0.00 0.00 69 1019.7
20210515104545 70 313 3.0 10.0 0.00 0.00 0.00 69 1019.8
20210515104020 70 123 3.0 11.0 0.00 0.00 0.00 69 1019.7
20210515103519 70 354 6.0 11.0 0.00 0.00 0.00 68 1019.6
20210515103028 69 324 5.0 9.0 0.00 0.00 0.00 68 1019.6
20210515102527 70 107 4.0 10.0 0.00 0.00 0.00 68 1019.6
20210515102020 70 90 4.0 11.0 0.00 0.00 0.00 68 1019.5
20210515101535 70 344 4.0 11.0 0.00 0.00 0.00 68 1019.5
20210515101021 70 137 3.0 9.0 0.00 0.00 0.00 67 1019.5
20210515100535 70 19 3.0 12.0 0.00 0.00 0.00 67 1019.5
20210515100023 69 15 5.0 12.0 0.00 0.00 0.00 67 1019.4
20210515095517 69 320 3.0 11.0 0.00 0.00 0.00 67 1019.3
20210515095017 69 40 4.0 10.0 0.00 0.00 0.00 67 1019.4
20210515094645 69 277 5.0 10.0 0.00 0.00 0.00 67 1019.4
20210515094023 69 77 3.0 10.0 0.00 0.00 0.00 67 1019.4
20210515093517 69 95 3.0 9.0 0.00 0.00 0.00 66 1019.4
20210515093042 69 262 3.0 9.0 0.00 0.00 0.00 66 1019.4
20210515092533 69 354 3.0 11.0 0.00 0.00 0.00 66 1019.3
20210515092016 69 257 3.0 11.0 0.00 0.00 0.00 66 1019.3
20210515091520 69 306 4.0 10.0 0.00 0.00 0.00 65 1019.2
20210515091019 69 299 3.0 10.0 0.00 0.00 0.00 65 1019.3
20210515090515 69 313 3.0 8.0 0.00 0.00 0.00 65 1019.3
20210515090020 69 4 3.0 10.0 0.00 0.00 0.00 65 1019.3
20210515085519 69 326 3.0 10.0 0.00 0.00 0.00 65 1019.2
20210515085035 69 241 4.0 10.0 0.00 0.00 0.00 65 1019.2
20210515084520 69 92 3.0 10.0 0.00 0.00 0.00 65 1019.2
20210515084017 69 359 3.0 12.0 0.00 0.00 0.00 64 1019.2
20210515083515 69 359 3.0 12.0 0.00 0.00 0.00 64 1019.2
20210515083029 69 341 5.0 13.0 0.00 0.00 0.00 64 1019.3
20210515082514 69 35 4.0 13.0 0.00 0.00 0.00 64 1019.2
20210515082024 69 16 5.0 10.0 0.00 0.00 0.00 63 1019.2
20210515081529 69 78 4.0 12.0 0.00 0.00 0.00 63 1019.2
20210515081013 69 39 3.0 12.0 0.00 0.00 0.00 63 1019.3
20210515080520 69 256 4.0 11.0 0.00 0.00 0.00 63 1019.3
20210515080103 69 274 3.0 8.0 0.00 0.00 0.00 63 1019.3
20210515075518 69 50 3.0 10.0 0.00 0.00 0.00 63 1019.3
20210515075015 69 14 2.0 10.0 0.00 0.00 0.00 62 1019.2
20210515074521 70 40 4.0 11.0 0.00 0.00 0.00 62 1019.2
20210515074018 70 88 5.0 12.0 0.00 0.00 0.00 62 1019.3
20210515073515 69 99 4.0 12.0 0.00 0.00 0.00 62 1019.3
20210515073014 70 46 3.0 12.0 0.00 0.00 0.00 62 1019.2
20210515072510 70 174 3.0 11.0 0.00 0.00 0.00 62 1019.2
20210515072015 70 4 4.0 11.0 0.00 0.00 0.00 62 1019.3
20210515071511 70 128 3.0 11.0 0.00 0.00 0.00 62 1019.4
20210515071009 70 4 5.0 11.0 0.00 0.00 0.00 63 1019.4
20210515070524 70 359 5.0 11.0 0.00 0.00 0.00 63 1019.3
20210515070008 70 335 5.0 11.0 0.00 0.00 0.00 64 1019.3
20210515065507 70 298 5.0 11.0 0.00 0.00 0.00 64 1019.3
20210515065006 70 83 5.0 10.0 0.00 0.00 0.00 65 1019.5
20210515064506 70 93 5.0 11.0 0.00 0.00 0.00 65 1019.5
20210515064006 70 23 4.0 12.0 0.00 0.00 0.00 65 1019.5
20210515063504 70 295 5.0 16.0 0.00 0.00 0.00 65 1019.6
20210515063018 70 19 6.0 19.0 0.00 0.00 0.00 65 1019.7
20210515062515 70 67 6.0 14.0 0.00 0.00 0.00 66 1019.6
20210515062003 70 354 5.0 11.0 0.00 0.00 0.00 66 1019.7
20210515061504 70 354 3.0 15.0 0.00 0.00 0.00 66 1019.6
20210515061004 70 86 6.0 15.0 0.00 0.00 0.00 66 1019.7
20210515060500 70 350 4.0 13.0 0.00 0.00 0.00 67 1019.7
20210515055600 70 26 5.0 13.0 0.00 0.00 0.00 66 1019.8
20210515055112 70 115 5.0 13.0 0.00 0.00 0.00 67 1019.8
20210515054650 70 52 3.0 11.0 0.00 0.00 0.00 67 1019.8
20210515054059 70 269 5.0 14.0 0.00 0.00 0.00 67 1019.9
20210515053602 70 317 6.0 14.0 0.00 0.00 0.00 68 1020.0
20210515053203 70 31 4.0 12.0 0.00 0.00 0.00 68 1020.0
20210515052601 70 90 4.0 14.0 0.00 0.00 0.00 68 1019.9
20210515052059 70 13 5.0 14.0 0.00 0.00 0.00 68 1019.9
20210515051706 71 4 4.0 13.0 0.00 0.00 0.00 68 1020.0
20210515051058 71 147 7.0 14.0 0.00 0.00 0.00 67 1020.0
20210515050558 71 303 5.0 14.0 0.00 0.00 0.00 68 1020.2
20210515050124 71 354 5.0 12.0 0.00 0.00 0.00 68 1020.2
20210515045554 71 60 3.0 11.0 0.00 0.00 0.00 68 1020.3
20210515045058 71 89 5.0 15.0 0.00 0.00 0.00 68 1020.3
20210515044605 71 71 6.0 15.0 0.00 0.00 0.00 67 1020.3
20210515044053 71 348 4.0 11.0 0.00 0.00 0.00 67 1020.3
20210515043607 71 29 6.0 15.0 0.00 0.00 0.00 68 1020.3
20210515043156 70 88 5.0 15.0 0.00 0.00 0.00 70 1020.3
20210515042624 70 243 4.0 13.0 0.00 0.00 0.00 72 1020.2
20210515042056 70 122 4.0 10.0 0.00 0.00 0.00 72 1020.3
20210515041702 70 67 3.0 14.0 0.00 0.00 0.00 73 1020.3
20210515041050 70 97 5.0 15.0 0.00 0.00 0.00 74 1020.4
20210515040553 70 303 6.0 15.0 0.00 0.00 0.00 74 1020.3
20210515040209 70 137 4.0 14.0 0.00 0.00 0.00 75 1020.3
20210515035607 70 95 5.0 15.0 0.00 0.00 0.00 75 1020.3
20210515035047 70 244 6.0 14.0 0.00 0.00 0.00 75 1020.3
20210515034621 70 88 5.0 14.0 0.00 0.00 0.00 75 1020.3
20210515034047 70 68 6.0 15.0 0.00 0.00 0.00 75 1020.4
20210515033551 70 89 7.0 16.0 0.00 0.00 0.00 75 1020.4
20210515033215 70 338 5.0 16.0 0.00 0.00 0.00 75 1020.5
20210515032547 70 354 6.0 12.0 0.00 0.00 0.00 75 1020.5
20210515032047 70 103 4.0 15.0 0.00 0.00 0.00 75 1020.5
20210515031556 70 28 4.0 15.0 0.00 0.00 0.00 75 1020.5
20210515031118 70 320 5.0 15.0 0.00 0.00 0.00 75 1020.6
20210515030550 70 106 7.0 14.0 0.00 0.00 0.00 75 1020.6
20210515030151 71 18 6.0 14.0 0.00 0.00 0.00 75 1020.5
20210515025550 71 325 5.0 14.0 0.00 0.00 0.00 75 1020.6
20210515025046 71 193 3.0 12.0 0.00 0.00 0.00 76 1020.6
20210515024603 71 169 4.0 14.0 0.00 0.00 0.00 76 1020.7
20210515024049 71 290 6.0 17.0 0.00 0.00 0.00 76 1020.6
20210515023545 71 81 6.0 17.0 0.00 0.00 0.00 76 1020.6
20210515023121 71 327 4.0 15.0 0.00 0.00 0.00 76 1020.5
20210515022543 70 145 5.0 15.0 0.00 0.00 0.00 77 1020.5
20210515022043 70 33 4.0 12.0 0.00 0.00 0.00 77 1020.4
20210515021611 70 243 4.0 19.0 0.00 0.00 0.00 77 1020.4
20210515021048 70 128 5.0 19.0 0.00 0.00 0.00 77 1020.3
20210515020547 70 263 4.0 14.0 0.00 0.00 0.00 77 1020.2
20210515020111 70 159 3.0 17.0 0.00 0.00 0.00 77 1020.1
20210515015540 70 42 5.0 17.0 0.00 0.00 0.00 77 1020.0
20210515015039 71 43 4.0 18.0 0.00 0.00 0.00 77 1020.0
20210515014600 71 75 6.0 19.0 0.00 0.00 0.00 78 1020.0
20210515014042 71 289 7.0 19.0 0.00 0.00 0.00 78 1020.0
20210515013538 71 107 4.0 17.0 0.00 0.00 0.00 78 1019.9
20210515013038 71 214 4.0 15.0 0.00 0.00 0.00 78 1019.9
20210515012548 71 84 5.0 17.0 0.00 0.00 0.00 78 1019.9
20210515012038 71 35 6.0 20.0 0.00 0.00 0.00 78 1019.8
20210515011541 71 288 4.0 20.0 0.00 0.00 0.00 78 1019.8
20210515011037 71 288 6.0 17.0 0.00 0.00 0.00 78 1019.7
20210515010550 71 202 6.0 16.0 0.00 0.00 0.00 78 1019.6
20210515010053 71 4 7.0 20.0 0.00 0.00 0.00 78 1019.6
20210515005536 71 270 5.0 20.0 0.00 0.00 0.00 78 1019.5
20210515005037 71 296 6.0 23.0 0.00 0.00 0.00 78 1019.6
20210515004553 71 93 9.0 23.0 0.00 0.00 0.00 77 1019.5
20210515004101 71 56 6.0 21.0 0.00 0.00 0.00 77 1019.5
20210515003536 71 239 4.0 21.0 0.00 0.00 0.00 77 1019.5
20210515003043 71 39 4.0 19.0 0.00 0.00 0.00 77 1019.4
20210515002541 71 299 7.0 19.0 0.00 0.00 0.00 77 1019.4
20210515002040 71 322 4.0 17.0 0.00 0.00 0.00 77 1019.4
20210515001556 71 50 9.0 19.0 0.00 0.00 0.00 77 1019.4
20210515001035 71 57 7.0 19.0 0.00 0.00 0.00 77 1019.4
20210515000549 71 106 5.0 19.0 0.00 0.00 0.00 77 1019.3
20210515000119 71 76 7.0 25.0 0.00 0.00 0.00 76 1019.2
20210514235543 72 354 7.0 18.0 0.00 0.00 0.00 76 1019.1
20210514235042 72 45 7.0 15.0 0.00 0.00 0.00 76 1019.1
20210514234559 72 63 5.0 21.0 0.00 0.00 0.00 76 1019.1
20210514234040 72 335 8.0 21.0 0.00 0.00 0.00 75 1019.1
20210514233544 72 16 8.0 21.0 0.00 0.00 0.00 75 1019.1
20210514233215 72 261 8.0 19.0 0.00 0.00 0.00 75 1019.1
20210514232545 72 310 7.0 20.0 0.00 0.00 0.00 75 1019.0
20210514232034 72 339 7.0 22.0 0.00 0.00 0.00 75 1019.0
20210514231627 72 100 8.0 22.0 0.00 0.00 0.00 75 1019.0
20210514231034 72 50 9.0 19.0 0.00 0.00 0.00 75 1018.9
20210514230534 73 129 6.0 21.0 0.00 0.00 0.00 75 1018.9
20210514230137 73 92 7.0 21.0 0.00 0.00 0.00 75 1019.0
20210514225533 73 278 5.0 21.0 0.00 0.00 0.00 74 1018.8
20210514225033 73 268 6.0 26.0 0.00 0.00 0.00 74 1018.8
20210514224551 73 323 11.0 26.0 0.00 0.00 0.00 73 1018.9
20210514224039 74 305 10.0 19.0 0.00 0.00 0.00 73 1018.8
20210514223532 74 359 6.0 21.0 0.00 0.00 0.00 73 1018.8
20210514223058 74 102 7.0 21.0 0.00 0.00 0.00 73 1018.8
20210514222535 74 255 7.0 20.0 0.00 0.00 0.00 73 1018.8
20210514222046 74 68 7.0 20.0 0.00 0.00 0.00 73 1018.8
20210514221619 74 300 7.0 19.0 0.00 0.00 0.00 74 1018.8
20210514221036 74 51 8.0 19.0 0.00 0.00 0.00 74 1018.8
20210514220532 74 270 8.0 24.0 0.00 0.00 0.00 74 1018.7
20210514220125 74 230 8.0 24.0 0.00 0.00 0.00 73 1018.8
20210514215534 74 299 10.0 21.0 0.00 0.00 0.00 73 1018.7
20210514215035 74 30 8.0 20.0 0.00 0.00 0.00 74 1018.7
20210514214534 73 326 9.0 23.0 0.00 0.00 0.00 74 1018.7
20210514214032 73 301 9.0 19.0 0.00 0.00 0.00 73 1018.7
20210514213531 74 63 9.0 23.0 0.00 0.00 0.00 73 1018.8
20210514213133 74 258 9.0 26.0 0.00 0.00 0.00 73 1018.8
20210514212532 73 60 9.0 26.0 0.00 0.00 0.00 73 1018.7
20210514212031 74 331 9.0 25.0 0.00 0.00 0.00 73 1018.7
20210514211624 74 268 9.0 25.0 0.00 0.00 0.00 73 1018.8
20210514211030 74 324 6.0 22.0 0.00 0.00 0.00 73 1018.8
20210514210531 74 20 9.0 27.0 0.00 0.00 0.00 73 1018.7
20210514210107 74 275 12.0 27.0 0.00 0.00 0.00 72 1018.8
20210514205532 74 101 7.0 21.0 0.00 0.00 0.00 73 1018.7
20210514205029 74 359 9.0 21.0 0.00 0.00 0.00 73 1018.7
20210514204608 74 312 10.0 26.0 0.00 0.00 0.00 73 1018.7
20210514204033 74 114 8.0 26.0 0.00 0.00 0.00 73 1018.7
20210514203529 74 89 9.0 23.0 0.00 0.00 0.00 73 1018.7
20210514203118 75 359 10.0 25.0 0.00 0.00 0.00 72 1018.8
20210514202529 75 66 11.0 25.0 0.00 0.00 0.00 72 1018.8
20210514202029 75 106 9.0 23.0 0.00 0.00 0.00 73 1018.8
20210514201536 75 313 7.0 21.0 0.00 0.00 0.00 73 1018.8
20210514201042 75 317 11.0 28.0 0.00 0.00 0.00 72 1018.8
20210514200538 75 324 12.0 28.0 0.00 0.00 0.00 72 1018.8
20210514200047 76 269 7.0 22.0 0.00 0.00 0.00 72 1018.9
20210514195528 76 20 11.0 22.0 0.00 0.00 0.00 72 1018.8
20210514195038 75 335 8.0 22.0 0.00 0.00 0.00 73 1018.9
20210514194622 75 332 11.0 22.0 0.00 0.00 0.00 72 1018.8
20210514194026 75 329 8.0 23.0 0.00 0.00 0.00 73 1018.9
20210514193527 75 219 11.0 23.0 0.00 0.00 0.00 72 1019.0
20210514193124 76 328 5.0 23.0 0.00 0.00 0.00 73 1019.1
20210514192527 75 85 10.0 21.0 0.00 0.00 0.00 73 1019.0
20210514192026 75 35 8.0 21.0 0.00 0.00 0.00 74 1019.0
20210514191545 75 321 10.0 20.0 0.00 0.00 0.00 73 1019.2
20210514191027 75 4 6.0 28.0 0.00 0.00 0.00 73 1019.1
20210514190532 75 75 8.0 28.0 0.00 0.00 0.00 74 1019.2
20210514190038 74 4 8.0 21.0 0.00 0.00 0.00 73 1019.3
20210514185526 75 80 9.0 22.0 0.00 0.00 0.00 73 1019.3
20210514185038 75 4 7.0 24.0 0.00 0.00 0.00 73 1019.3
20210514184527 75 101 9.0 24.0 0.00 0.00 0.00 73 1019.3
20210514184039 75 100 10.0 20.0 0.00 0.00 0.00 73 1019.3
20210514183536 75 100 6.0 20.0 0.00 0.00 0.00 73 1019.2
20210514183046 75 176 10.0 20.0 0.00 0.00 0.00 73 1019.3
20210514182524 75 77 7.0 24.0 0.00 0.00 0.00 73 1019.3
20210514182029 75 41 7.0 24.0 0.00 0.00 0.00 73 1019.2
20210514181526 75 81 9.0 24.0 0.00 0.00 0.00 72 1019.2
20210514181033 75 31 12.0 25.0 0.00 0.00 0.00 72 1019.2
20210514180524 75 113 11.0 25.0 0.00 0.00 0.00 72 1019.2
20210514180108 75 204 9.0 24.0 0.00 0.00 0.00 73 1019.3
20210514175528 75 314 9.0 28.0 0.00 0.00 0.00 73 1019.2
20210514175024 75 35 10.0 25.0 0.00 0.00 0.00 73 1019.2
20210514174524 75 116 10.0 24.0 0.00 0.00 0.00 73 1019.2
20210514174029 75 93 9.0 22.0 0.00 0.00 0.00 73 1019.2
20210514173523 74 84 11.0 23.0 0.00 0.00 0.00 73 1019.2
20210514173121 75 89 8.0 20.0 0.00 0.00 0.00 73 1019.1
20210514172525 75 343 11.0 24.0 0.00 0.00 0.00 73 1019.2
20210514172023 75 274 9.0 26.0 0.00 0.00 0.00 73 1019.3
20210514171549 75 49 10.0 27.0 0.00 0.00 0.00 73 1019.3
20210514171031 75 303 10.0 27.0 0.00 0.00 0.00 73 1019.3
20210514170522 75 15 11.0 24.0 0.00 0.00 0.00 73 1019.4
20210514170023 75 99 6.0 19.0 0.00 0.00 0.00 73 1019.5
20210514165522 75 20 8.0 20.0 0.00 0.00 0.00 73 1019.5
20210514165023 75 297 6.0 20.0 0.00 0.00 0.00 73 1019.5
20210514164532 75 359 9.0 22.0 0.00 0.00 0.00 73 1019.7
20210514164027 75 70 10.0 24.0 0.00 0.00 0.00 73 1019.6
20210514163520 75 10 6.0 24.0 0.00 0.00 0.00 73 1019.7
20210514163046 75 305 8.0 25.0 0.00 0.00 0.00 74 1019.7
20210514162520 75 305 9.0 25.0 0.00 0.00 0.00 73 1019.7
20210514162019 75 32 10.0 25.0 0.00 0.00 0.00 73 1019.8
20210514161520 75 95 9.0 21.0 0.00 0.00 0.00 72 1019.8
20210514161018 75 274 6.0 18.0 0.00 0.00 0.00 74 1019.7
20210514160519 75 268 7.0 19.0 0.00 0.00 0.00 74 1019.8
20210514160035 75 338 7.0 23.0 0.00 0.00 0.00 74 1019.8
20210514155518 74 98 8.0 24.0 0.00 0.00 0.00 74 1019.8
20210514155025 74 14 10.0 24.0 0.00 0.00 0.00 73 1019.8
20210514154530 75 56 9.0 23.0 0.00 0.00 0.00 73 1019.8
20210514154020 75 297 9.0 23.0 0.00 0.00 0.00 74 1019.8
20210514153536 75 311 10.0 22.0 0.00 0.00 0.00 73 1019.8
20210514153029 75 118 10.0 23.0 0.00 0.00 0.00 73 1019.8
20210514152514 75 290 9.0 23.0 0.00 0.00 0.00 74 1019.8
20210514152021 74 108 7.0 19.0 0.00 0.00 0.00 74 1019.7
20210514151518 74 304 6.0 18.0 0.00 0.00 0.00 75 1019.8
20210514151016 74 30 9.0 21.0 0.00 0.00 0.00 75 1019.8
20210514150515 74 235 9.0 21.0 0.00 0.00 0.00 74 1019.8
20210514150016 74 313 9.0 21.0 0.00 0.00 0.00 74 1019.8
20210514145509 74 284 8.0 23.0 0.00 0.00 0.00 74 1019.7
20210514145009 74 272 7.0 23.0 0.00 0.00 0.00 75 1019.7
20210514144545 74 39 6.0 21.0 0.00 0.00 0.00 75 1019.7
20210514144008 74 37 11.0 21.0 0.00 0.00 0.00 75 1019.7
20210514143506 73 43 6.0 20.0 0.00 0.00 0.00 76 1019.7
20210514143007 73 31 9.0 22.0 0.00 0.00 0.00 75 1019.5
20210514142507 73 341 10.0 22.0 0.00 0.00 0.00 75 1019.6
20210514142005 73 70 8.0 22.0 0.00 0.00 0.00 75 1019.5
20210514141507 73 306 6.0 22.0 0.00 0.00 0.00 75 1019.5
20210514141004 73 334 7.0 21.0 0.00 0.00 0.00 75 1019.4
20210514140506 73 305 7.0 19.0 0.00 0.00 0.00 76 1019.5
20210514140002 73 75 8.0 20.0 0.00 0.00 0.00 75 1019.4
20210514135502 73 195 7.0 18.0 0.00 0.00 0.00 76 1019.5
20210514134100 72 297 9.0 22.0 0.00 0.00 0.00 77 1019.5
20210514133636 72 302 9.0 22.0 0.00 0.00 0.00 77 1019.5
20210514133141 72 145 9.0 22.0 0.00 0.00 0.00 77 1019.4
20210514132559 72 287 10.0 22.0 0.00 0.00 0.00 76 1019.4
20210514132059 72 335 7.0 19.0 0.00 0.00 0.00 77 1019.4
20210514131658 72 88 6.0 13.0 0.00 0.00 0.00 77 1019.5
20210514131112 72 314 4.0 16.0 0.00 0.00 0.00 77 1019.4
20210514130557 72 347 8.0 18.0 0.00 0.00 0.00 76 1019.2
20210514130107 72 275 6.0 18.0 0.00 0.00 0.00 77 1019.3
20210514125554 72 345 7.0 16.0 0.00 0.00 0.00 77 1019.3
20210514125052 72 208 4.0 17.0 0.00 0.00 0.00 78 1019.2
20210514124731 72 335 5.0 19.0 0.00 0.00 0.00 78 1019.2
20210514124049 71 345 6.0 19.0 0.00 0.00 0.00 78 1019.1
20210514123558 71 284 6.0 16.0 0.00 0.00 0.00 79 1019.0
20210514123103 71 241 5.0 16.0 0.00 0.00 0.00 79 1018.9
20210514122610 70 35 3.0 15.0 0.00 0.00 0.00 80 1019.0
20210514122044 70 132 6.0 18.0 0.00 0.00 0.00 80 1018.9
20210514121647 70 278 5.0 12.0 0.00 0.00 0.00 81 1018.9
20210514121056 69 304 2.0 15.0 0.00 0.00 0.00 82 1018.9
20210514120540 69 345 5.0 15.0 0.00 0.00 0.00 83 1018.8